Temp
78 78 77 76 76 77 74 74 74 72 73 74 73 74 75 75 75 73 73 73 73 73 72 71 70 70 68 68 66 66 65 65 64 67 66 67 67 68 71 72 71 69 71
80 79 78 77 76 76 75 75 74 74 72 73 73 73 75 76 75 75 74 76 73 72 73 72 72 73 69 68 66 66 66 65 66 65 65 66 66 66 68 67 71 74 72
80 79 78 77 76 75 75 76 75 75 74 72 74 74 74 75 75 75 76 76 74 75 74 73 74 71 71 70 67 66 65 67 64 64 67 65 66 65 65 65 66 68 71
80 78 77 77 76 76 76 76 76 76 75 73 75 76 75 75 76 76 76 75 75 75 75 74 75 73 74 73 70 70 69 66 64 63 64 64 65 66 65 64 64 64 70
79 77 77 77 77 77 76 76 76 76 76 76 76 75 76 76 77 76 76 75 74 74 74 75 75 76 74 74 75 74 70 68 68 65 66 61 63 64 64 65 71 73 70
79 77 78 77 76 76 76 75 75 75 76 76 75 76 75 78 72 70 76 77 76 75 74 74 75 74 73 70 70 72 75 71 70 70 72 71 72 68 73 73 69 64 66
79 78 78 77 76 76 76 76 74 74 75 75 75 76 76 76 68 68 70 79 77 77 76 77 76 77 72 75 69 68 68 69 72 78 71 73 73 74 74 67 73 73 74
78 78 78 77 76 76 76 75 75 75 75 74 75 76 76 77 67 66 68 76 78 78 77 77 77 77 76 74 74 72 71 73 72 73 76 78 78 78 76 77 72 70 72
78 78 78 78 77 76 76 76 77 76 76 76 77 76 76 76 65 64 66 75 76 77 79 78 78 77 72 67 73 73 73 73 70 67 68 69 69 69 69 67 66 65 65
79 79 79 79 78 77 77 77 78 78 78 78 77 77 73 77 65 62 64 76 74 76 77 78 68 74 66 64 72 74 73 75 74 74 73 69 67 70 65 68 68 65 65
79 78 78 80 79 79 78 79 78 78 78 77 77 78 78 75 76 61 60 76 77 76 76 77 78 64 61 61 61 76 74 77 74 74 74 74 73 71 70 68 68 67 66
78 79 78 78 79 80 78 78 78 77 76 76 76 77 78 79 66 61 59 61 71 77 77 78 77 63 59 58 60 64 62 62 71 73 74 74 72 72 71 70 69 68 69
72 73 74 76 80 81 78 78 76 77 77 76 76 76 76 76 77 61 58 59 60 71 79 74 65 59 56 58 57 59 58 66 69 70 70 71 72 73 74 70 70 70 69
71 71 71 72 72 74 77 79 78 78 76 77 75 75 75 74 74 74 67 65 60 63 66 70 66 64 62 65 64 60 63 67 68 68 69 70 70 70 69 68 67 67 63
70 70 71 71 70 71 70 67 75 77 74 78 78 76 74 73 74 69 70 72 71 68 68 70 68 68 68 68 67 68 67 65 65 65 66 67 67 68 66 66 65 63 61
68 68 68 70 71 70 66 60 48 48 47 47 49 63 73 64 58 54 53 53 54 53 67 69 70 70 70 69 68 67 65 65 65 65 66 65 65 64 63 63 63 63 60
67 68 69 68 70 67 66 65 65 56 46 44 44 48 48 58 49 49 48 48 48 55 69 68 69 68 69 68 67 66 65 64 65 63 62 63 63 62 61 61 62 61 60
67 60 68 69 70 69 66 66 65 64 63 62 49 47 44 45 44 44 46 53 60 62 67 66 65 64 63 63 62 61 61 60 61 63 64 62 62 61 61 60 60 60 60
66 67 68 68 69 68 68 66 65 64 63 61 59 53 46 43 44 46 48 66 66 66 64 64 62 62 61 59 59 59 59 59 60 61 63 63 62 61 61 61 59 54 56
66 63 62 66 67 68 69 67 64 63 61 60 62 61 59 58 63 63 63 63 63 63 62 60 60 59 59 58 58 58 58 59 61 61 62 62 62 61 61 60 59 56 55
66 67 65 67 66 67 70 68 67 64 62 61 63 61 53 65 63 63 63 62 62 62 60 60 59 59 59 58 58 58 58 60 61 61 62 62 61 60 60 59 56 55 54
66 67 66 66 65 66 68 68 65 63 62 62 61 57 47 63 63 62 60 60 60 60 60 60 60 60 60 59 59 59 60 61 59 61 61 61 60 60 60 59 56 55 54
65 66 65 64 64 60 62 62 61 62 62 62 62 60 59 61 61 59 59 59 59 60 59 60 60 60 60 60 60 60 60 60 61 59 60 60 58 57 56 56 55 56 54
62 63 63 61 61 62 61 60 59 56 61 59 59 60 58 58 55 54 54 54 53 51 50 50 51 51 52 54 58 62 62 61 60 60 59 58 58 54 56 56 55 55 55
56 57 62 62 61 59 58 58 58 59 57 56 55 54 53 53 53 50 50 49 48 47 46 45 46 46 47 47 46 45 39 34 48 49 59 59 58 58 57 57 56 56 54
51 51 52 52 52 53 53 52 50 50 50 50 50 49 49 49 49 49 49 49 46 45 46 45 44 43 43 42 40 36 33 35 42 36 53 60 59 60 58 58 58 57 58
MSLP
1009.16 1010.05 1010.99 1011.69 1012.31 1013.02 1013.59 1014.09 1014.53 1014.93 1015.30 1015.77 1016.05 1016.39 1016.61 1016.89 1017.19 1017.69 1017.98 1018.41 1018.92 1019.11 1019.19 1019.38 1019.37 1019.47 1019.67 1019.87 1020.04 1020.18 1020.44 1020.74 1020.89 1020.05 1019.66 1019.15 1019.33 1019.39 1019.23 1019.39 1019.53 1019.78 1019.92
1008.09 1009.16 1009.97 1010.76 1011.54 1012.23 1012.80 1013.29 1013.79 1014.11 1014.74 1015.18 1015.58 1015.93 1016.09 1016.31 1016.71 1017.09 1017.50 1017.82 1018.25 1018.61 1018.66 1018.96 1019.02 1019.03 1019.18 1019.53 1019.75 1019.93 1020.04 1019.96 1020.35 1020.12 1019.58 1019.34 1019.25 1019.19 1019.09 1019.35 1019.16 1019.21 1019.27
1007.45 1008.35 1009.22 1009.99 1010.71 1011.30 1011.88 1012.47 1013.01 1013.43 1014.11 1014.63 1015.01 1015.26 1015.51 1015.70 1016.07 1016.43 1016.73 1017.00 1017.24 1017.51 1017.85 1018.08 1018.24 1018.66 1018.77 1018.88 1019.10 1019.34 1019.38 1019.51 1019.76 1019.89 1019.49 1019.11 1018.94 1018.93 1018.87 1018.78 1018.65 1018.65 1018.59
1006.61 1007.58 1008.47 1009.15 1009.75 1010.41 1011.03 1011.67 1012.08 1012.66 1013.37 1013.82 1014.13 1014.43 1014.73 1015.07 1015.39 1015.71 1016.05 1016.30 1016.36 1016.66 1016.97 1017.21 1017.36 1017.66 1017.77 1017.97 1018.23 1018.27 1018.47 1018.96 1019.17 1019.14 1019.01 1018.81 1018.69 1018.12 1018.29 1018.27 1018.31 1018.08 1017.81
1005.78 1006.78 1007.43 1008.25 1008.98 1009.64 1010.17 1010.65 1011.25 1011.86 1012.31 1012.77 1013.25 1013.58 1013.81 1014.30 1014.49 1014.85 1015.15 1015.41 1015.65 1015.88 1016.15 1016.29 1016.42 1016.60 1016.65 1016.81 1017.25 1017.34 1017.83 1018.15 1018.29 1018.28 1018.21 1018.03 1017.71 1017.73 1017.50 1017.30 1017.32 1016.93 1017.05
1004.89 1005.74 1006.48 1007.42 1008.20 1008.65 1009.17 1009.84 1010.45 1010.92 1011.35 1011.88 1012.20 1012.44 1012.91 1013.19 1013.47 1013.75 1014.05 1014.43 1014.71 1014.98 1015.23 1015.36 1015.48 1015.61 1015.76 1015.86 1016.13 1016.29 1016.51 1016.99 1017.05 1017.08 1016.79 1016.75 1016.34 1016.18 1016.07 1016.06 1016.27 1016.87 1016.70
1003.93 1004.90 1005.83 1006.68 1007.37 1007.81 1008.35 1009.05 1009.60 1010.05 1010.59 1010.89 1011.24 1011.55 1011.78 1012.16 1012.46 1012.78 1013.13 1013.46 1013.74 1013.85 1014.06 1014.28 1014.50 1014.62 1014.81 1015.14 1015.31 1015.41 1015.49 1015.43 1015.18 1015.25 1015.38 1014.99 1014.67 1014.69 1014.79 1014.93 1014.87 1014.87 1014.47
1003.41 1004.18 1005.04 1005.85 1006.38 1007.18 1007.85 1008.25 1008.78 1009.26 1009.67 1009.95 1010.26 1010.47 1010.83 1011.05 1011.44 1011.78 1012.21 1012.69 1012.69 1012.66 1012.86 1013.09 1013.29 1013.45 1013.81 1014.20 1014.42 1014.40 1014.27 1014.19 1014.27 1014.27 1014.06 1013.29 1013.39 1013.37 1013.52 1013.31 1013.45 1013.69 1013.57
1002.69 1003.26 1004.05 1004.81 1005.50 1006.26 1006.79 1007.19 1007.65 1008.27 1008.65 1008.84 1009.05 1009.52 1009.81 1010.09 1010.43 1010.79 1011.46 1011.82 1011.69 1011.57 1011.85 1012.06 1012.24 1012.48 1012.75 1013.11 1013.36 1013.26 1013.04 1012.88 1012.90 1012.81 1012.35 1011.93 1011.92 1011.94 1012.17 1012.98 1013.23 1013.58 1013.04
1001.53 1002.16 1003.30 1004.08 1004.69 1005.29 1005.58 1006.12 1006.42 1007.09 1007.40 1007.75 1008.12 1008.43 1008.69 1008.93 1009.37 1009.83 1010.54 1010.87 1010.79 1010.97 1011.07 1011.05 1011.18 1011.45 1011.83 1012.17 1012.32 1012.17 1012.01 1011.96 1011.91 1011.76 1011.65 1011.58 1011.29 1011.11 1011.76 1012.37 1012.61 1012.77 1012.37
1001.43 1002.16 1002.85 1003.30 1003.77 1004.44 1004.99 1005.49 1005.91 1006.34 1006.74 1007.07 1007.26 1007.39 1007.66 1008.01 1008.42 1008.89 1009.47 1009.82 1009.73 1009.90 1009.87 1009.96 1010.06 1010.31 1010.69 1010.87 1010.89 1011.08 1010.87 1010.49 1010.61 1010.82 1010.69 1010.46 1010.45 1010.48 1010.49 1010.51 1010.57 1010.95 1010.87
1000.85 1001.40 1001.94 1002.57 1003.27 1003.87 1004.31 1004.74 1005.19 1005.67 1006.02 1006.25 1006.49 1006.64 1006.71 1006.97 1007.39 1007.85 1008.31 1008.58 1008.61 1008.79 1008.70 1008.78 1008.95 1009.25 1009.35 1009.55 1010.05 1010.08 1009.98 1010.11 1010.43 1010.22 1009.97 1009.67 1009.55 1009.37 1009.35 1009.40 1009.29 1009.45 1009.35
1000.81 1001.26 1001.58 1001.99 1002.35 1002.78 1003.37 1003.91 1004.49 1004.85 1005.12 1005.44 1005.68 1005.80 1005.95 1006.23 1006.49 1006.90 1007.20 1007.55 1007.81 1008.09 1007.81 1007.84 1007.96 1008.15 1008.49 1008.86 1009.16 1009.26 1009.51 1009.97 1009.85 1009.76 1009.42 1009.13 1008.90 1008.85 1008.66 1008.63 1008.66 1008.27 1008.31
1001.15 1001.54 1001.77 1001.97 1002.20 1002.50 1002.95 1003.46 1003.83 1004.11 1004.39 1004.63 1004.83 1004.95 1005.23 1005.46 1005.81 1006.21 1006.77 1007.07 1007.27 1007.54 1007.62 1007.47 1007.59 1007.82 1008.04 1008.24 1008.53 1008.73 1008.96 1008.94 1008.89 1008.86 1008.74 1008.75 1008.76 1008.73 1008.56 1008.41 1008.21 1008.16 1008.49
1001.57 1001.55 1001.69 1001.88 1002.07 1002.33 1002.87 1003.51 1003.47 1003.09 1003.49 1003.84 1003.74 1004.11 1004.47 1004.73 1004.81 1004.98 1005.41 1006.01 1006.25 1006.31 1006.66 1007.17 1007.46 1007.60 1007.75 1007.84 1007.87 1007.92 1008.17 1008.55 1008.75 1008.79 1008.81 1008.73 1008.68 1008.62 1008.33 1008.23 1008.21 1008.61 1008.95
1001.99 1001.86 1001.81 1001.81 1001.81 1002.05 1002.78 1003.67 1003.88 1003.86 1003.73 1003.62 1003.57 1003.52 1003.40 1003.49 1004.01 1004.30 1004.66 1004.92 1005.15 1005.71 1006.49 1006.59 1006.68 1006.82 1007.01 1007.16 1007.37 1007.63 1007.90 1008.13 1008.30 1008.50 1008.59 1008.55 1008.47 1008.46 1008.26 1008.44 1008.63 1008.88 1009.29
1002.46 1002.16 1001.81 1001.60 1001.63 1002.02 1002.57 1003.07 1003.59 1003.96 1003.98 1003.84 1003.69 1003.54 1003.57 1003.22 1003.74 1004.16 1004.47 1004.84 1005.30 1005.72 1005.83 1005.92 1006.06 1006.21 1006.35 1006.63 1006.95 1007.27 1007.55 1007.69 1007.71 1007.87 1008.07 1008.13 1008.15 1008.37 1008.49 1008.55 1008.87 1008.97 1009.23
1002.39 1002.09 1001.96 1001.60 1001.39 1001.53 1001.97 1002.36 1002.77 1003.22 1003.60 1003.85 1003.89 1003.80 1003.66 1003.71 1004.00 1004.35 1004.56 1004.86 1005.79 1005.49 1005.39 1005.51 1005.66 1005.94 1006.21 1006.45 1006.80 1007.17 1007.45 1007.57 1007.60 1007.79 1007.94 1008.05 1008.02 1008.33 1008.54 1008.72 1008.77 1009.08 1009.57
1002.31 1001.83 1001.34 1001.03 1000.79 1000.73 1001.01 1001.52 1001.93 1002.38 1002.87 1003.31 1003.80 1003.87 1004.11 1004.14 1004.31 1004.50 1004.51 1004.62 1005.01 1005.29 1005.37 1005.50 1005.65 1005.89 1006.15 1006.38 1006.69 1007.04 1007.26 1007.40 1007.53 1007.64 1007.70 1007.88 1008.10 1008.49 1008.53 1008.67 1009.09 1009.55 1009.93
1001.85 1001.39 1001.05 1000.81 1000.51 1000.41 1000.57 1000.99 1001.44 1001.79 1002.29 1002.80 1003.27 1003.55 1003.83 1004.09 1004.33 1004.34 1004.32 1004.49 1004.74 1005.03 1005.26 1005.37 1005.59 1005.91 1006.25 1006.56 1006.85 1007.05 1007.18 1007.45 1007.49 1007.48 1007.57 1007.73 1007.90 1008.43 1008.56 1008.82 1009.08 1009.63 1010.27
1001.66 1001.19 1000.49 1000.25 1000.07 1000.02 1000.09 1000.33 1000.65 1001.13 1001.49 1002.11 1002.68 1003.17 1003.15 1003.25 1003.81 1004.15 1004.33 1004.51 1004.69 1004.93 1005.25 1005.51 1005.73 1005.96 1006.23 1006.43 1006.66 1006.76 1006.99 1007.11 1007.11 1007.27 1007.43 1007.62 1007.74 1008.16 1008.55 1008.94 1009.34 1009.61 1010.12
1001.30 1000.74 1000.17 999.93 999.70 999.63 999.68 999.95 1000.31 1000.75 1001.25 1001.74 1002.41 1003.20 1003.48 1003.53 1003.85 1004.25 1004.63 1004.81 1004.94 1005.09 1005.27 1005.47 1005.69 1005.81 1005.99 1006.22 1006.35 1006.54 1006.63 1006.68 1006.84 1006.93 1007.11 1007.21 1007.59 1007.95 1008.48 1008.75 1009.31 1009.61 1009.83
1000.61 999.98 999.51 999.39 999.48 999.63 999.92 1000.15 1000.61 1000.93 1001.20 1001.63 1002.19 1003.22 1003.60 1003.92 1004.28 1004.48 1004.93 1005.17 1005.33 1005.62 1005.76 1005.77 1005.91 1006.02 1006.12 1006.08 1006.08 1006.08 1006.13 1006.23 1006.31 1006.65 1006.82 1007.19 1007.80 1008.13 1008.28 1008.59 1008.79 1009.15 1009.32
999.75 999.41 999.16 999.22 999.32 999.59 999.98 1000.28 1000.82 1001.06 1001.22 1001.77 1002.38 1003.44 1003.62 1004.61 1004.32 1005.22 1005.40 1005.93 1006.24 1006.58 1006.76 1006.85 1006.96 1007.01 1006.81 1006.58 1006.20 1005.94 1005.88 1005.95 1006.06 1006.37 1006.43 1006.87 1007.39 1008.14 1008.14 1008.43 1008.69 1009.10 1009.21
1000.28 999.81 999.67 1000.03 1000.34 1000.47 1000.77 1001.26 1001.77 1002.43 1002.59 1002.95 1003.02 1003.45 1004.41 1004.69 1005.46 1005.95 1006.37 1006.74 1007.23 1007.57 1007.78 1007.85 1007.94 1007.93 1007.78 1007.52 1007.39 1007.18 1006.96 1006.61 1006.42 1005.93 1006.25 1006.78 1007.09 1007.49 1007.85 1008.11 1008.27 1008.65 1008.92
1001.56 1001.10 1001.09 1001.47 1001.87 1002.18 1002.72 1002.97 1003.23 1003.68 1004.93 1004.95 1005.17 1005.14 1005.22 1005.69 1005.83 1006.55 1007.25 1007.29 1007.91 1008.42 1008.57 1008.89 1009.09 1009.06 1008.78 1008.37 1008.01 1007.44 1006.93 1006.70 1006.31 1006.21 1006.25 1006.59 1006.84 1006.93 1007.28 1007.48 1007.85 1007.98 1007.87
Wind_Speed
18 17 16 14 13 12 10 10 10 8 9 8 7 8 8 9 9 8 8 8 9 7 6 7 8 5 5 4 3 3 3 4 4 4 3 2 5 6 6 8 7 7 7
19 17 17 14 13 13 12 11 10 12 7 8 7 8 10 10 9 11 11 9 10 9 10 7 9 5 7 5 4 6 5 4 4 6 2 3 6 5 5 6 7 7 8
17 17 16 15 14 15 15 13 11 11 9 8 9 10 10 10 10 11 12 12 11 12 11 11 11 6 8 5 5 5 4 4 4 4 5 2 3 2 4 4 5 7 6
18 17 16 16 16 15 14 13 14 12 11 10 12 12 11 10 10 10 11 11 12 11 11 12 12 11 13 10 8 10 7 5 4 4 4 4 4 4 3 4 5 5 9
17 17 18 16 16 15 15 15 14 13 14 13 13 12 12 11 10 12 12 12 12 12 10 12 13 14 18 15 9 10 7 7 6 7 7 3 5 4 5 4 9 6 7
18 19 18 17 16 16 16 14 14 14 14 14 14 16 14 11 14 18 15 12 13 13 12 12 13 15 16 18 18 18 12 10 11 8 10 11 13 7 9 10 7 4 7
18 17 16 15 15 16 15 14 14 14 13 15 14 14 15 14 16 19 20 14 12 13 14 13 11 11 14 13 15 18 17 18 22 15 13 15 14 12 11 8 13 11 13
17 17 15 15 16 14 14 14 13 12 13 13 13 14 14 13 16 19 19 17 15 15 14 14 15 14 12 12 13 13 15 16 16 14 18 19 15 14 13 15 15 13 11
16 17 16 16 16 14 15 15 14 13 12 14 14 14 14 14 16 18 15 13 16 17 14 14 14 15 13 15 13 14 15 13 11 20 23 23 21 20 15 3 7 8 10
17 17 14 15 16 16 16 15 14 12 13 11 12 13 15 15 15 17 16 10 13 11 12 15 15 16 14 16 14 15 15 13 12 13 11 16 21 20 11 12 10 11 11
8 8 11 15 15 14 13 12 11 12 11 11 12 12 13 13 14 18 19 13 11 10 10 10 10 16 18 19 19 15 16 16 13 11 11 11 10 8 9 11 14 14 14
10 13 12 12 10 10 13 11 11 11 11 12 11 10 9 11 13 15 20 22 15 12 11 9 9 15 19 19 14 17 16 9 7 9 10 9 8 9 9 10 13 12 13
5 4 4 7 11 12 12 12 10 11 11 10 10 9 8 6 8 14 20 20 21 12 11 11 13 12 13 12 15 15 10 6 8 9 10 10 8 7 7 5 9 10 13
8 6 3 5 6 6 6 8 9 9 10 10 9 9 7 5 6 6 8 9 15 9 11 9 5 5 6 5 4 6 7 8 8 8 7 5 4 5 4 3 4 2 1
6 5 4 1 4 5 3 2 7 7 8 9 10 8 7 7 9 12 11 8 9 12 9 3 3 4 5 5 5 5 4 2 3 3 4 5 5 5 2 2 1 2 1
5 4 2 2 2 3 4 3 4 2 4 6 8 5 6 8 9 14 14 13 13 11 4 4 7 7 7 6 5 4 3 5 3 3 3 3 4 4 3 1 1 2 3
5 6 5 4 2 3 3 5 6 0 5 4 2 6 10 8 11 9 9 8 9 10 4 5 6 6 5 4 4 3 3 3 3 3 3 3 3 1 1 1 2 3 4
6 7 4 4 3 4 5 6 5 6 4 3 7 6 4 4 9 9 10 10 3 3 3 4 4 3 4 4 4 3 3 3 3 3 3 3 2 2 1 2 2 3 4
7 5 5 4 4 4 4 4 4 4 4 3 2 4 5 8 10 8 3 2 3 3 3 3 3 4 3 4 4 4 4 3 3 2 2 2 1 1 2 3 4 4 6
8 12 8 4 4 3 4 5 4 5 4 4 4 4 5 4 4 3 2 2 3 3 3 4 4 3 4 4 4 3 3 2 2 3 2 2 3 2 2 4 5 6 3
7 9 8 4 4 4 5 7 7 6 7 6 4 4 7 5 5 3 3 3 3 3 3 3 4 3 4 4 4 3 3 4 4 3 2 2 3 2 3 3 3 4 5
9 9 4 5 4 4 4 5 5 6 6 7 5 4 2 2 4 4 3 3 2 2 2 3 3 3 4 4 4 4 4 3 4 3 3 3 3 3 3 3 4 3 4
10 9 5 4 4 5 4 4 4 5 7 7 8 5 3 3 4 4 5 4 4 5 5 4 4 3 0 2 3 4 4 4 3 4 3 3 3 3 4 4 4 4 5
7 6 5 4 5 5 6 6 5 7 9 8 8 5 7 4 7 6 6 6 6 7 6 6 6 7 6 6 5 3 2 2 1 3 5 4 5 5 4 3 4 5 4
6 8 8 6 5 5 6 7 7 5 6 6 7 8 7 8 7 8 7 7 7 7 8 7 6 8 10 11 10 9 9 8 6 2 3 4 5 6 5 4 4 3 3
10 11 11 11 11 11 10 9 11 11 9 7 7 7 8 9 9 9 7 9 9 8 10 8 9 12 11 10 11 11 8 8 6 6 4 5 5 6 5 6 8 5 6
Wind_Direction
190 193 197 198 196 194 188 197 201 194 201 205 192 192 199 201 195 193 200 195 200 213 216 211 231 210 225 224 223 212 206 170 223 295 245 257 203 216 226 214 212 207 221
191 191 196 194 193 197 202 197 192 206 189 196 187 195 206 206 196 200 208 204 198 207 221 213 232 231 231 213 210 228 222 209 197 261 247 252 219 215 230 214 222 225 223
189 193 195 196 193 196 201 198 198 204 198 194 202 207 204 208 204 207 210 209 206 209 211 218 227 209 242 231 217 230 226 215 208 223 267 252 249 204 221 229 208 224 228
189 192 196 200 198 200 202 203 206 201 199 201 209 218 211 205 205 208 207 211 215 214 210 215 223 213 224 223 221 230 230 225 205 226 247 245 226 226 201 210 242 210 235
187 190 199 197 200 202 204 204 206 204 210 210 214 215 212 204 207 207 208 209 213 218 212 218 223 222 222 221 221 236 220 227 224 231 246 228 233 223 208 207 235 233 235
188 197 198 196 197 201 204 203 201 206 207 207 210 217 215 215 209 204 206 212 213 217 220 222 227 223 227 223 221 230 215 219 235 231 248 247 250 227 237 229 218 173 251
192 198 198 196 200 204 203 203 205 206 204 213 214 214 218 218 208 206 208 219 218 220 223 226 227 227 223 230 229 234 237 227 232 240 239 240 252 239 235 228 226 224 234
192 195 194 195 201 199 202 206 207 206 207 211 215 217 219 220 203 208 207 219 229 228 224 224 229 233 222 214 227 228 233 235 235 240 247 255 247 251 230 232 236 242 257
192 197 196 197 200 193 203 205 205 206 208 214 216 216 218 224 205 206 199 219 230 234 230 225 227 231 226 210 223 236 240 239 235 235 238 246 244 242 236 203 239 248 247
195 196 192 195 199 199 204 205 207 207 216 215 220 216 218 224 205 203 197 215 231 235 237 238 224 226 214 212 223 236 247 247 238 241 245 251 251 257 236 239 252 236 238
168 174 184 199 201 201 203 205 204 207 214 218 223 222 220 215 216 198 199 216 228 233 233 234 231 212 219 219 216 232 238 246 249 249 252 251 255 243 230 220 228 230 242
169 182 191 189 189 194 198 200 204 202 209 217 219 226 223 221 208 200 202 211 217 229 234 233 232 213 217 223 222 237 249 254 257 256 261 266 256 252 240 232 229 230 236
117 133 174 189 198 199 196 198 196 201 209 215 219 224 225 208 210 201 204 213 224 233 237 236 230 223 223 232 230 231 233 232 245 254 259 261 261 282 291 253 249 249 254
78 85 107 186 195 197 198 202 202 204 211 215 216 221 215 202 195 190 208 219 234 236 252 255 247 220 210 205 203 206 213 214 214 227 254 290 304 294 270 243 247 249 74
38 29 32 90 189 191 158 207 214 214 215 210 218 205 194 205 206 200 199 200 210 218 218 207 206 207 223 222 227 220 208 177 221 243 255 270 285 286 255 235 167 93 114
2 4 0 346 266 199 170 187 60 349 321 294 273 225 201 218 186 206 209 210 204 151 169 207 222 219 223 220 215 205 182 198 205 221 240 263 281 256 237 11 49 107 132
334 324 321 317 249 175 176 196 224 95 56 59 341 267 246 242 199 198 200 210 180 158 208 210 219 207 211 180 184 172 180 180 188 218 237 251 243 278 46 338 205 148 149
308 278 264 270 255 194 191 201 199 197 201 194 52 43 40 156 145 148 140 118 114 254 183 208 207 168 174 172 166 166 181 196 193 215 236 230 181 167 179 154 159 135 151
308 291 278 280 274 234 191 182 185 181 188 157 144 80 71 105 121 132 129 133 166 186 197 185 172 165 166 154 159 173 179 186 200 209 208 196 110 181 141 128 108 114 126
296 276 261 254 262 239 197 185 182 175 165 162 175 169 154 148 164 157 141 150 157 157 173 165 164 152 146 158 173 185 186 220 229 210 146 147 157 197 159 145 146 145 146
279 278 268 260 239 220 202 200 195 184 177 168 177 170 170 150 148 147 140 143 148 150 162 169 167 161 167 167 171 167 185 203 212 219 196 193 155 171 162 135 142 149 140
255 255 249 239 224 205 200 180 175 168 164 154 137 120 98 111 121 130 122 125 149 169 186 183 186 179 170 176 174 181 192 199 188 179 179 158 163 173 175 157 159 161 163
249 248 224 194 181 140 123 123 136 145 141 140 138 144 136 125 111 100 85 62 55 55 33 44 49 41 33 184 190 188 187 205 197 178 182 156 173 188 169 174 170 179 173
246 236 208 168 157 150 140 132 125 135 133 126 114 109 115 104 100 74 79 66 66 58 47 43 43 35 10 13 5 350 334 327 193 201 178 173 181 189 176 181 181 199 173
41 58 60 55 47 61 87 86 78 64 85 84 105 109 99 92 80 75 73 73 65 62 57 45 40 35 38 37 22 4 348 345 314 277 179 195 205 197 197 194 182 185 161
54 61 67 63 55 54 52 58 63 61 37 50 58 69 87 86 83 86 81 85 79 69 66 54 42 36 33 29 23 15 9 358 352 315 256 204 208 214 204 208 209 206 197